This demonstration page uses our WeatherBlox Daily Observations layout. Learn more.

Left ArrowRight Arrow

44.8408, -93.29828

Hourly Observations for March 3, 2022

Temp ( °F °C ) Dew Point ( °F °C ) Humidity (%) Winds ( mph kmh ) Pressure ( in mb ) Visibility ( mi km ) Precip ( " mm )
12:53 am 00:53 Mostly Cloudy 22 -5.6 4 -15.6 46 46 NNE 10 17 30.38 1029 10 16 0.00 0.00
1:53 am 01:53 Mostly Cloudy 20 -6.7 3 -16.1 48 48 N 9 15 30.41 1030 10 16 0.00 0.00
2:53 am 02:53 Mostly Cloudy 19 -7.2 2 -16.7 47 47 N 9 15 30.43 1031 10 16 0.00 0.00
3:53 am 03:53 Cloudy 18 -7.8 1 -17.2 47 47 NNE 10 17 30.44 1031 10 16 0.00 0.00
4:53 am 04:53 Mostly Cloudy 18 -7.8 0 -17.8 45 45 N 10 17 30.47 1032 10 16 0.00 0.00
5:53 am 05:53 Mostly Cloudy 17 -8.3 0 -17.8 47 47 NNE 8 13 30.50 1033 10 16 0.00 0.00
6:53 am 06:53 Mostly Cloudy 16 -8.9 0 -17.8 49 49 NNE 9 15 30.51 1033 10 16 0.00 0.00
7:53 am 07:53 Mostly Cloudy 16 -8.9 0 -17.8 49 49 NNE 7 11 30.53 1034 10 16 0.00 0.00
8:53 am 08:53 Mostly Cloudy 17 -8.3 0 -17.8 47 47 NNE 8 13 30.55 1035 10 16 0.00 0.00
9:53 am 09:53 Mostly Cloudy 18 -7.8 0 -17.8 45 45 NNE 8 13 30.55 1035 10 16 0.00 0.00
10:53 am 10:53 Mostly Cloudy 20 -6.7 0 -17.8 41 41 N 5 7 30.56 1035 10 16 0.00 0.00
11:53 am 11:53 Mostly Cloudy 22 -5.6 -1 -18.3 36 36 N 5 7 30.55 1034 10 16 0.00 0.00
12:53 pm 12:53 Mostly Cloudy 24 -4.4 -2 -18.9 32 32 ENE 3 6 30.54 1034 10 16 0.00 0.00
1:53 pm 13:53 Mostly Cloudy 25 -3.9 -1 -18.3 32 32 N 3 6 30.52 1034 10 16 0.00 0.00
2:53 pm 14:53 Mostly Cloudy 25 -3.9 -2 -18.9 30 30 Calm 30.51 1033 10 16 0.00 0.00
3:53 pm 15:53 Mostly Cloudy 25 -3.9 -1 -18.3 32 32 NE 3 6 30.51 1033 10 16 0.00 0.00
4:53 pm 16:53 Mostly Cloudy 25 -3.9 -3 -19.4 29 29 ENE 5 7 30.49 1033 10 16 0.00 0.00
5:53 pm 17:53 Mostly Cloudy 25 -3.9 -1 -18.3 32 32 E 6 9 30.47 1032 10 16 0.00 0.00
6:53 pm 18:53 Mostly Cloudy 25 -3.9 -2 -18.9 30 30 E 5 7 30.47 1032 10 16 0.00 0.00
7:53 pm 19:53 Mostly Cloudy 24 -4.4 -1 -18.3 33 33 E 6 9 30.46 1032 10 16 0.00 0.00
8:53 pm 20:53 Partly Cloudy 23 -5 1 -17.2 38 38 SE 5 7 30.47 1032 10 16 0.00 0.00
9:53 pm 21:53 Partly Cloudy 22 -5.6 3 -16.1 44 44 SE 6 9 30.47 1032 10 16 0.00 0.00
10:53 pm 22:53 Partly Cloudy 22 -5.6 3 -16.1 44 44 SE 5 7 30.45 1031 10 16 0.00 0.00
11:53 pm 23:53 Cloudy 22 -5.6 3 -16.1 44 44 E 3 6 30.46 1031 10 16 0.00 0.00

Powered by AerisWeather